Location: ???????
(55.4362°N, 38.1183°E)
Time: 17:24:06
(UTC+00:00)

Cosmos 2333 Rocket - Pass Details

Date: 26 October 2021
Orbit: 837 x 865 km, 70.8° (Epoch: 04 December)

Event Time Altitude Azimuth Distance (km) Brightness Sun altitude
Exits shadow 03:03:13 - 309° (NW) 2,553 4.2 -11.4°
Reaches altitude 10° 03:03:22 10° 308° (NW) 2,510 4.2 -11.4°
Maximum altitude 03:07:49 24° 257° (WSW) 1,732 3.3 -10.8°
Drops below altitude 10° 03:12:16 10° 206° (SSW) 2,503 4.5 -10.2°
Sets 03:15:10 0° 193° (SSW) 3,436 5.3 -9.7°
